,,Stat6,,Stat2,,Stat8,,Stat9,,Stat10,,Wind1,,Wind1,
time,status,PA1M_AVG,status,PR1M_SUM,status,RH1M_AVG,status,SR1M_AVG,status,TA1M_AVG,status,W1dAve1m,status,W1sAve1m,
2006-01-01, 00:00:00,VALID,919.564,VALID,0,VALID,99.4001,VALID,-0.0169808,VALID,17.3717,VALID,355,VALID,0,
2006-01-01, 00:01:00,VALID,919.543,VALID,0,VALID,99.4903,VALID,0.0169808,VALID,17.3461,VALID,355,VALID,0,
2006-01-01, 00:02:00,VALID,919.536,VALID,0,VALID,99.5844,VALID,0,VALID,17.3269,VALID,355,VALID,0,
2006-01-01, 00:03:00,VALID,919.51,VALID,0,VALID,99.7968,VALID,0.0169808,VALID,17.3299,VALID,355,VALID,0,
2006-01-01, 00:04:00,VALID,919.496,VALID,0,VALID,99.91,VALID,0.0849042,VALID,17.3265,VALID,355,VALID,0,
2006-01-01, 00:05:00,VALID,919.473,VALID,0,VALID,99.7014,VALID,0.135847,VALID,17.3319,VALID,355,VALID,0,
2006-01-01, 00:06:00,VALID,919.451,VALID,0,VALID,99.4967,VALID,0.0849042,VALID,17.3095,VALID,355,VALID,0,
2006-01-01, 00:07:00,VALID,919.452,VALID,0,VALID,99.2653,VALID,0.101885,VALID,17.283,VALID,355,VALID,0.210211,
2006-01-01, 00:08:00,VALID,919.45,VALID,0,VALID,99.0491,VALID,0.0679233,VALID,17.238,VALID,355,VALID,0.209517,
2006-01-01, 00:09:00,VALID,919.449,VALID,0,VALID,99.0415,VALID,0.101885,VALID,17.2123,VALID,355,VALID,0.0236192,
2006-01-01, 00:10:00,VALID,919.444,VALID,0,VALID,99.1572,VALID,0.101885,VALID,17.1998,VALID,355,VALID,0.0635901,
2006-01-01, 00:11:00,VALID,919.435,VALID,0,VALID,99.1852,VALID,0.0849042,VALID,17.1867,VALID,355,VALID,0,
2006-01-01, 00:12:00,VALID,919.411,VALID,0,VALID,99.2131,VALID,0.118866,VALID,17.1833,VALID,355,VALID,0.00120192,
2006-01-01, 00:13:00,VALID,919.403,VALID,0,VALID,99.3238,VALID,0.0849042,VALID,17.1738,VALID,355,VALID,0,
2006-01-01, 00:14:00,VALID,919.394,VALID,0,VALID,99.7091,VALID,0.101885,VALID,17.2123,VALID,355,VALID,0,
2006-01-01, 00:15:00,VALID,919.392,VALID,0,VALID,99.0059,VALID,0.101885,VALID,17.1998,VALID,355,VALID,0,
2006-01-01, 00:16:00,VALID,919.382,VALID,0,VALID,98.5048,VALID,0.101885,VALID,17.1128,VALID,355,VALID,0,
2006-01-01, 00:17:00,VALID,919.388,VALID,0,VALID,98.7185,VALID,0.101885,VALID,17.0769,VALID,355,VALID,0,
2006-01-01, 00:18:00,VALID,919.397,VALID,0,VALID,99.2386,VALID,0.101885,VALID,17.1156,VALID,355,VALID,0.155859,
2006-01-01, 00:19:00,VALID,919.397,VALID,0,VALID,99.9245,VALID,0.101885,VALID,17.1899,VALID,355,VALID,0.03125,
2006-01-01, 00:20:00,VALID,919.402,VALID,0,VALID,100,VALID,-0.0509425,VALID,17.2724,VALID,355,VALID,0,
2006-01-01, 00:21:00,VALID,919.384,VALID,0,VALID,100,VALID,0,VALID,17.314,VALID,355,VALID,0,
2006-01-01, 00:22:00,VALID,919.382,VALID,0,VALID,99.9855,VALID,-0.0339617,VALID,17.2462,VALID,355,VALID,0,
2006-01-01, 00:23:00,VALID,919.378,VALID,0,VALID,99.928,VALID,0,VALID,17.2367,VALID,355,VALID,0,
2006-01-01, 00:24:00,VALID,919.376,VALID,0,VALID,99.222,VALID,-0.0339617,VALID,17.104,VALID,355,VALID,0,
2006-01-01, 00:25:00,VALID,919.387,VALID,0,VALID,98.9525,VALID,0.0169808,VALID,17.0359,VALID,355,VALID,0,
2006-01-01, 00:26:00,VALID,919.383,VALID,0,VALID,99.0211,VALID,0,VALID,16.9941,VALID,355,VALID,0,
2006-01-01, 00:27:00,VALID,919.386,VALID,0,VALID,99.6811,VALID,-0.0169808,VALID,17.0301,VALID,355,VALID,0,
2006-01-01, 00:28:00,VALID,919.382,VALID,0,VALID,99.8566,VALID,0,VALID,17.0461,VALID,355,VALID,0,
2006-01-01, 00:29:00,VALID,919.381,VALID,0,VALID,99.8248,VALID,0,VALID,17.043,VALID,355,VALID,0,
2006-01-01, 00:30:00,VALID,919.378,VALID,0,VALID,99.9977,VALID,0,VALID,17.1206,VALID,354,VALID,0.0866642,
2006-01-01, 00:31:00,VALID,919.392,VALID,0,VALID,100,VALID,-0.0339617,VALID,17.2981,VALID,352,VALID,0.391959,
2006-01-01, 00:32:00,VALID,919.376,VALID,0,VALID,100,VALID,0,VALID,17.431,VALID,352,VALID,0.242773,
2006-01-01, 00:33:00,VALID,919.372,VALID,0,VALID,100,VALID,-0.0169808,VALID,17.4859,VALID,352,VALID,0.00363372,
2006-01-01, 00:34:00,VALID,919.344,VALID,0,VALID,100,VALID,0,VALID,17.518,VALID,352,VALID,0.0112424,
2006-01-01, 00:35:00,VALID,919.324,VALID,0,VALID,100,VALID,0.118866,VALID,17.4256,VALID,352,VALID,0.00669643,
2006-01-01, 00:36:00,VALID,919.307,VALID,0,VALID,100,VALID,0.0849042,VALID,17.4131,VALID,352,VALID,0.112424,
2006-01-01, 00:37:00,VALID,919.298,VALID,0,VALID,100,VALID,0.152827,VALID,17.4191,VALID,352,VALID,0,
2006-01-01, 00:38:00,VALID,919.28,VALID,0,VALID,100,VALID,0.135847,VALID,17.4189,VALID,352,VALID,0,
2006-01-01, 00:39:00,VALID,919.261,VALID,0,VALID,100,VALID,0.101885,VALID,17.4131,VALID,352,VALID,0,
2006-01-01, 00:40:00,VALID,919.238,VALID,0,VALID,100,VALID,0.101885,VALID,17.4228,VALID,352,VALID,0,
2006-01-01, 00:41:00,VALID,919.203,VALID,0,VALID,100,VALID,0.101885,VALID,17.4195,VALID,352,VALID,0,
2006-01-01, 00:42:00,VALID,919.188,VALID,0,VALID,100,VALID,0.0849042,VALID,17.4135,VALID,352,VALID,0,
2006-01-01, 00:43:00,VALID,919.172,VALID,0,VALID,100,VALID,0.0849042,VALID,17.3939,VALID,352,VALID,0,
2006-01-01, 00:44:00,VALID,919.169,VALID,0,VALID,100,VALID,0.0509425,VALID,17.3681,VALID,352,VALID,0,
2006-01-01, 00:45:00,VALID,919.141,VALID,0,VALID,100,VALID,0.101885,VALID,17.3614,VALID,352,VALID,0,
2006-01-01, 00:46:00,VALID,919.123,VALID,0,VALID,100,VALID,0.0849042,VALID,17.3325,VALID,352,VALID,0,
2006-01-01, 00:47:00,VALID,919.103,VALID,0,VALID,100,VALID,0.101885,VALID,17.3129,VALID,352,VALID,0,
2006-01-01, 00:48:00,VALID,919.087,VALID,0,VALID,99.9194,VALID,0.101885,VALID,17.2741,VALID,352,VALID,0,
2006-01-01, 00:49:00,VALID,919.059,VALID,0,VALID,99.6137,VALID,0.101885,VALID,17.1932,VALID,352,VALID,0,
2006-01-01, 00:50:00,VALID,919.062,VALID,0,VALID,99.6646,VALID,0.0169808,VALID,17.1714,VALID,352,VALID,0,
2006-01-01, 00:51:00,VALID,919.041,VALID,0,VALID,99.7116,VALID,0.0509425,VALID,17.1522,VALID,352,VALID,0,
2006-01-01, 00:52:00,VALID,919.038,VALID,0,VALID,99.7803,VALID,0.0169808,VALID,17.1201,VALID,352,VALID,0,
2006-01-01, 00:53:00,VALID,919.028,VALID,0,VALID,99.8744,VALID,0.0169808,VALID,17.1033,VALID,352,VALID,0,
2006-01-01, 00:54:00,VALID,919.011,VALID,0,VALID,99.8222,VALID,0.0169808,VALID,17.0906,VALID,352,VALID,0,
2006-01-01, 00:55:00,VALID,918.999,VALID,0,VALID,99.7091,VALID,0,VALID,17.1169,VALID,352,VALID,0.314453,
2006-01-01, 00:56:00,VALID,918.992,VALID,0,VALID,99.4204,VALID,0.0339617,VALID,17.1587,VALID,18,VALID,0.419457,
2006-01-01, 00:57:00,VALID,918.983,VALID,0,VALID,99.002,VALID,0.0679233,VALID,17.1938,VALID,21,VALID,0.257813,
2006-01-01, 00:58:00,VALID,918.991,VALID,0,VALID,98.5684,VALID,0.0339617,VALID,17.2362,VALID,21,VALID,0.071875,
2006-01-01, 00:59:00,VALID,918.987,VALID,0,VALID,98.075,VALID,0.0169808,VALID,17.2431,VALID,21,VALID,0.102834,
2006-01-01, 01:00:00,VALID,918.973,VALID,0,VALID,97.9797,VALID,0,VALID,17.2069,VALID,21,VALID,0.0394345,
2006-01-01, 01:01:00,VALID,918.954,VALID,0,VALID,98.1564,VALID,0.0169808,VALID,17.1912,VALID,37,VALID,0.349023,
2006-01-01, 01:02:00,VALID,918.946,VALID,0,VALID,98.398,VALID,0.0339617,VALID,17.2009,VALID,53,VALID,0.551417,
2006-01-01, 01:03:00,VALID,918.942,VALID,0,VALID,98.3968,VALID,0.0339617,VALID,17.2007,VALID,61,VALID,0.608016,
2006-01-01, 01:04:00,VALID,918.934,VALID,0,VALID,98.4235,VALID,0,VALID,17.2397,VALID,97,VALID,0.488814,
2006-01-01, 01:05:00,VALID,918.928,VALID,0,VALID,98.1285,VALID,0.101885,VALID,17.2642,VALID,104,VALID,0.0142912,
2006-01-01, 01:06:00,VALID,918.936,VALID,0,VALID,97.8996,VALID,0.118866,VALID,17.2349,VALID,104,VALID,0.00114329,
2006-01-01, 01:07:00,VALID,918.919,VALID,0,VALID,97.8347,VALID,0.135847,VALID,17.2259,VALID,104,VALID,0,
2006-01-01, 01:08:00,VALID,918.919,VALID,0,VALID,97.6961,VALID,0.135847,VALID,17.177,VALID,104,VALID,0,
2006-01-01, 01:09:00,VALID,918.913,VALID,0,VALID,98.3446,VALID,0.101885,VALID,17.1581,VALID,104,VALID,0.0686384,
2006-01-01, 01:10:00,VALID,918.918,VALID,0,VALID,98.7261,VALID,0.135847,VALID,17.1481,VALID,104,VALID,0.152798,
2006-01-01, 01:11:00,VALID,918.926,VALID,0,VALID,99.1152,VALID,0.118866,VALID,17.1249,VALID,109,VALID,0.479651,
2006-01-01, 01:12:00,VALID,918.921,VALID,0,VALID,99.498,VALID,0.101885,VALID,17.1389,VALID,116,VALID,0.393895,
2006-01-01, 01:13:00,VALID,918.93,VALID,0,VALID,99.7561,VALID,0.135847,VALID,17.1316,VALID,116,VALID,0.403274,
2006-01-01, 01:14:00,VALID,918.928,VALID,0,VALID,99.1826,VALID,0.135847,VALID,17.0736,VALID,116,VALID,0.003125,
2006-01-01, 01:15:00,VALID,918.944,VALID,0,VALID,98.8851,VALID,0.118866,VALID,16.9868,VALID,116,VALID,0,
2006-01-01, 01:16:00,VALID,918.951,VALID,0,VALID,98.7299,VALID,0.135847,VALID,16.9149,VALID,116,VALID,0.00109012,
2006-01-01, 01:17:00,VALID,918.936,VALID,0,VALID,98.5048,VALID,0.135847,VALID,16.8376,VALID,116,VALID,0.174716,
2006-01-01, 01:18:00,VALID,918.929,VALID,0,VALID,98.9041,VALID,0.118866,VALID,16.8025,VALID,95,VALID,0.42721,
2006-01-01, 01:19:00,VALID,918.914,VALID,0,VALID,98.9537,VALID,0.152827,VALID,16.7579,VALID,54,VALID,0.424543,
2006-01-01, 01:20:00,VALID,918.903,VALID,0,VALID,99.2487,VALID,0.0679233,VALID,16.7296,VALID,54,VALID,0.249645,
2006-01-01, 01:21:00,VALID,918.896,VALID,0,VALID,99.9624,VALID,0.0679233,VALID,16.7551,VALID,54,VALID,0.326219,
2006-01-01, 01:22:00,VALID,918.871,VALID,0,VALID,100,VALID,0.0679233,VALID,16.8044,VALID,59,VALID,0.358467,
2006-01-01, 01:23:00,VALID,918.862,VALID,0,VALID,100,VALID,0.0679233,VALID,16.8294,VALID,59,VALID,0.226944,
2006-01-01, 01:24:00,VALID,918.833,VALID,0,VALID,100,VALID,0.0679233,VALID,16.8619,VALID,59,VALID,0.292111,
2006-01-01, 01:25:00,VALID,918.827,VALID,0,VALID,100,VALID,0.0509425,VALID,16.8748,VALID,59,VALID,0.299479,
2006-01-01, 01:26:00,VALID,918.816,VALID,0,VALID,100,VALID,0,VALID,16.8681,VALID,59,VALID,0.492733,
2006-01-01, 01:27:00,VALID,918.818,VALID,0,VALID,100,VALID,0.0339617,VALID,16.8845,VALID,98,VALID,0.394055,
2006-01-01, 01:28:00,VALID,918.803,VALID,0,VALID,100,VALID,0.0169808,VALID,16.878,VALID,132,VALID,0.0959302,
2006-01-01, 01:29:00,VALID,918.8,VALID,0,VALID,100,VALID,0.0339617,VALID,16.8944,VALID,132,VALID,0.452009,
2006-01-01, 01:30:00,VALID,918.807,VALID,0,VALID,100,VALID,0.0509425,VALID,16.9172,VALID,132,VALID,0.314546,
2006-01-01, 01:31:00,VALID,918.789,VALID,0,VALID,100,VALID,0.0679233,VALID,16.9134,VALID,132,VALID,0.111133,
2006-01-01, 01:32:00,VALID,918.806,VALID,0,VALID,100,VALID,0.0339617,VALID,16.9138,VALID,132,VALID,0.097202,
2006-01-01, 01:33:00,VALID,918.795,VALID,0,VALID,100,VALID,0.0339617,VALID,16.9007,VALID,132,VALID,0.417411,
2006-01-01, 01:34:00,VALID,918.8,VALID,0,VALID,100,VALID,0.0339617,VALID,16.9592,VALID,132,VALID,0.365885,
2006-01-01, 01:35:00,VALID,918.81,VALID,0,VALID,100,VALID,0.0169808,VALID,17.014,VALID,132,VALID,0.141768,
2006-01-01, 01:36:00,VALID,918.809,VALID,0,VALID,100,VALID,0.0339617,VALID,17.0529,VALID,132,VALID,0,
2006-01-01, 01:37:00,VALID,918.797,VALID,0,VALID,100,VALID,0,VALID,17.0493,VALID,132,VALID,0,
2006-01-01, 01:38:00,VALID,918.798,VALID,0,VALID,100,VALID,0,VALID,17.0329,VALID,132,VALID,0,
2006-01-01, 01:39:00,VALID,918.802,VALID,0,VALID,100,VALID,0,VALID,17.0368,VALID,132,VALID,0,
2006-01-01, 01:40:00,VALID,918.796,VALID,0,VALID,99.9702,VALID,0,VALID,17.014,VALID,132,VALID,0,
2006-01-01, 01:41:00,VALID,918.791,VALID,0,VALID,99.7981,VALID,0.0509425,VALID,16.9911,VALID,132,VALID,0,
2006-01-01, 01:42:00,VALID,918.781,VALID,0,VALID,99.896,VALID,0,VALID,16.9722,VALID,132,VALID,0,
2006-01-01, 01:43:00,VALID,918.782,VALID,0,VALID,99.9418,VALID,0.0679233,VALID,16.9784,VALID,130,VALID,0.442042,
2006-01-01, 01:44:00,VALID,918.787,VALID,0,VALID,99.8744,VALID,0,VALID,16.9754,VALID,124,VALID,0.687691,
2006-01-01, 01:45:00,VALID,918.772,VALID,0,VALID,99.9341,VALID,0.0339617,VALID,16.9653,VALID,124,VALID,0.589453,
2006-01-01, 01:46:00,VALID,918.763,VALID,0,VALID,99.8845,VALID,0.0169808,VALID,16.9618,VALID,124,VALID,0.374637,
2006-01-01, 01:47:00,VALID,918.766,VALID,0,VALID,99.8728,VALID,0.0169808,VALID,16.9592,VALID,124,VALID,0.362909,
2006-01-01, 01:48:00,VALID,918.754,VALID,0,VALID,99.7599,VALID,0.0169808,VALID,16.92,VALID,124,VALID,0.12571,
2006-01-01, 01:49:00,VALID,918.756,VALID,0,VALID,99.7765,VALID,0,VALID,16.8942,VALID,124,VALID,0,
2006-01-01, 01:50:00,VALID,918.745,VALID,0,VALID,99.7002,VALID,0.118866,VALID,16.8514,VALID,124,VALID,0.0397892,
2006-01-01, 01:51:00,VALID,918.736,VALID,0,VALID,99.9064,VALID,0.0849042,VALID,16.8421,VALID,124,VALID,0.565387,
2006-01-01, 01:52:00,VALID,918.729,VALID,0,VALID,100,VALID,0.101885,VALID,16.8705,VALID,125,VALID,0.570499,
2006-01-01, 01:53:00,VALID,918.71,VALID,0,VALID,100,VALID,0.0849042,VALID,16.916,VALID,125,VALID,0.589844,
2006-01-01, 01:54:00,VALID,918.703,VALID,0,VALID,100,VALID,0.101885,VALID,16.9513,VALID,126,VALID,0.744348,
2006-01-01, 01:55:00,VALID,918.682,VALID,0,VALID,100,VALID,0.101885,VALID,16.9844,VALID,126,VALID,0.271949,
2006-01-01, 01:56:00,VALID,918.684,VALID,0,VALID,100,VALID,0.101885,VALID,16.984,VALID,126,VALID,0.660429,
2006-01-01, 01:57:00,VALID,918.688,VALID,0,VALID,100,VALID,0.101885,VALID,17.0161,VALID,127,VALID,0.579901,
2006-01-01, 01:58:00,VALID,918.687,VALID,0,VALID,100,VALID,0.101885,VALID,17.0422,VALID,133,VALID,0.394097,
2006-01-01, 01:59:00,VALID,918.678,VALID,0,VALID,100,VALID,0.101885,VALID,17.0685,VALID,133,VALID,0.325586,
2006-01-01, 02:00:00,VALID,918.684,VALID,0,VALID,100,VALID,0.152827,VALID,17.048,VALID,133,VALID,0.373757,
2006-01-01, 02:01:00,VALID,918.669,VALID,0,VALID,100,VALID,0.118866,VALID,17.0482,VALID,133,VALID,0.341844,
2006-01-01, 02:02:00,VALID,918.667,VALID,0,VALID,100,VALID,0.118866,VALID,17.062,VALID,133,VALID,0.572545,
2006-01-01, 02:03:00,VALID,918.657,VALID,0,VALID,100,VALID,0.118866,VALID,17.0585,VALID,135,VALID,0.884973,
2006-01-01, 02:04:00,VALID,918.646,VALID,0,VALID,100,VALID,0.101885,VALID,17.0489,VALID,142,VALID,0.814062,
2006-01-01, 02:05:00,VALID,918.646,VALID,0,VALID,100,VALID,0.0849042,VALID,17.0389,VALID,140,VALID,0.87391,
2006-01-01, 02:06:00,VALID,918.629,VALID,0,VALID,100,VALID,0.101885,VALID,17.0426,VALID,131,VALID,0.935138,
2006-01-01, 02:07:00,VALID,918.612,VALID,0,VALID,100,VALID,0.0509425,VALID,17.0359,VALID,131,VALID,0.610709,
2006-01-01, 02:08:00,VALID,918.604,VALID,0,VALID,100,VALID,0.0509425,VALID,17.0196,VALID,131,VALID,0.232986,
2006-01-01, 02:09:00,VALID,918.599,VALID,0,VALID,100,VALID,0.0679233,VALID,17.0069,VALID,131,VALID,0.0916193,
2006-01-01, 02:10:00,VALID,918.597,VALID,0,VALID,100,VALID,0.101885,VALID,16.9711,VALID,131,VALID,0.339286,
2006-01-01, 02:11:00,VALID,918.583,VALID,0,VALID,100,VALID,0.101885,VALID,16.9129,VALID,131,VALID,0.272675,
2006-01-01, 02:12:00,VALID,918.565,VALID,0,VALID,100,VALID,0.101885,VALID,16.8352,VALID,131,VALID,0.198828,
2006-01-01, 02:13:00,VALID,918.544,VALID,0,VALID,100,VALID,0.101885,VALID,16.7708,VALID,131,VALID,0.260901,
2006-01-01, 02:14:00,VALID,918.531,VALID,0,VALID,100,VALID,0.0849042,VALID,16.7256,VALID,131,VALID,0.286585,
2006-01-01, 02:15:00,VALID,918.519,VALID,0,VALID,100,VALID,0.0849042,VALID,16.6866,VALID,131,VALID,0.016369,
2006-01-01, 02:16:00,VALID,918.506,VALID,0,VALID,100,VALID,0.118866,VALID,16.6769,VALID,131,VALID,0,
2006-01-01, 02:17:00,VALID,918.495,VALID,0,VALID,100,VALID,0.118866,VALID,16.6836,VALID,131,VALID,0,
2006-01-01, 02:18:00,VALID,918.486,VALID,0,VALID,100,VALID,0.101885,VALID,16.6827,VALID,131,VALID,0,
2006-01-01, 02:19:00,VALID,918.47,VALID,0,VALID,100,VALID,0.118866,VALID,16.7129,VALID,131,VALID,0,
2006-01-01, 02:20:00,VALID,918.459,VALID,0,VALID,100,VALID,0.118866,VALID,16.732,VALID,131,VALID,0,
2006-01-01, 02:21:00,VALID,918.438,VALID,0,VALID,100,VALID,0.0849042,VALID,16.7839,VALID,131,VALID,0.00981105,
2006-01-01, 02:22:00,VALID,918.439,VALID,0,VALID,100,VALID,0.101885,VALID,16.8514,VALID,131,VALID,0.0260417,
2006-01-01, 02:23:00,VALID,918.454,VALID,0,VALID,100,VALID,0.0849042,VALID,16.8802,VALID,131,VALID,0.425694,
2006-01-01, 02:24:00,VALID,918.45,VALID,0,VALID,100,VALID,0.101885,VALID,16.8908,VALID,118,VALID,0.764063,
2006-01-01, 02:25:00,VALID,918.443,VALID,0,VALID,100,VALID,0.0849042,VALID,16.9099,VALID,114,VALID,0.633557,
2006-01-01, 02:26:00,VALID,918.442,VALID,0,VALID,100,VALID,0.101885,VALID,16.8869,VALID,104,VALID,0.553571,
2006-01-01, 02:27:00,VALID,918.428,VALID,0,VALID,100,VALID,0.101885,VALID,16.8386,VALID,96,VALID,0.338281,
2006-01-01, 02:28:00,VALID,918.417,VALID,0,VALID,100,VALID,0.135847,VALID,16.8031,VALID,96,VALID,0.0941612,
2006-01-01, 02:29:00,VALID,918.375,VALID,0,VALID,100,VALID,0.0679233,VALID,16.7708,VALID,96,VALID,0,
2006-01-01, 02:30:00,VALID,918.36,VALID,0,VALID,100,VALID,0.0679233,VALID,16.7609,VALID,96,VALID,0,
2006-01-01, 02:31:00,VALID,918.351,VALID,0,VALID,100,VALID,0.101885,VALID,16.7551,VALID,96,VALID,0,
2006-01-01, 02:32:00,VALID,918.351,VALID,0,VALID,100,VALID,0.101885,VALID,16.7387,VALID,96,VALID,0.30814,
2006-01-01, 02:33:00,VALID,918.332,VALID,0,VALID,100,VALID,0.101885,VALID,16.7387,VALID,107,VALID,0.608445,
2006-01-01, 02:34:00,VALID,918.324,VALID,0,VALID,100,VALID,0.118866,VALID,16.7387,VALID,140,VALID,0.965116,
2006-01-01, 02:35:00,VALID,918.312,VALID,0,VALID,100,VALID,-0.0169808,VALID,16.7303,VALID,144,VALID,0.739397,
2006-01-01, 02:36:00,VALID,918.295,VALID,0,VALID,100,VALID,-0.0169808,VALID,16.7492,VALID,144,VALID,0.739139,
2006-01-01, 02:37:00,VALID,918.288,VALID,0,VALID,100,VALID,0,VALID,16.7985,VALID,137,VALID,0.877604,
2006-01-01, 02:38:00,VALID,918.279,VALID,0,VALID,100,VALID,-0.0509425,VALID,16.8401,VALID,127,VALID,0.739644,
2006-01-01, 02:39:00,VALID,918.271,VALID,0,VALID,100,VALID,0,VALID,16.8625,VALID,126,VALID,0.649581,
2006-01-01, 02:40:00,VALID,918.273,VALID,0,VALID,100,VALID,0,VALID,16.8785,VALID,125,VALID,0.34013,
2006-01-01, 02:41:00,VALID,918.272,VALID,0,VALID,100,VALID,0,VALID,16.9144,VALID,125,VALID,0.366477,
2006-01-01, 02:42:00,VALID,918.262,VALID,0,VALID,100,VALID,0,VALID,16.9433,VALID,125,VALID,0.712462,
2006-01-01, 02:43:00,VALID,918.263,VALID,0,VALID,100,VALID,-0.0169808,VALID,16.9692,VALID,125,VALID,0.673735,
2006-01-01, 02:44:00,VALID,918.248,VALID,0,VALID,100,VALID,0.0169808,VALID,17.0079,VALID,125,VALID,0.619792,
2006-01-01, 02:45:00,VALID,918.229,VALID,0,VALID,100,VALID,0.0169808,VALID,17.0239,VALID,125,VALID,0.553089,
2006-01-01, 02:46:00,VALID,918.223,VALID,0,VALID,100,VALID,-0.0339617,VALID,17.0305,VALID,125,VALID,0.387074,
2006-01-01, 02:47:00,VALID,918.206,VALID,0,VALID,100,VALID,-0.0169808,VALID,17.0017,VALID,125,VALID,0.056593,
2006-01-01, 02:48:00,VALID,918.206,VALID,0,VALID,100,VALID,0,VALID,16.9493,VALID,126,VALID,0.2125,
2006-01-01, 02:49:00,VALID,918.188,VALID,0,VALID,100,VALID,-0.0169808,VALID,16.9435,VALID,129,VALID,0.560865,
2006-01-01, 02:50:00,VALID,918.178,VALID,0,VALID,100,VALID,-0.0679233,VALID,16.9463,VALID,130,VALID,0.631359,
2006-01-01, 02:51:00,VALID,918.166,VALID,0,VALID,100,VALID,-0.0679233,VALID,16.9694,VALID,130,VALID,0.616806,
2006-01-01, 02:52:00,VALID,918.158,VALID,0,VALID,100,VALID,-0.0849042,VALID,16.9629,VALID,130,VALID,0.235899,
2006-01-01, 02:53:00,VALID,918.143,VALID,0,VALID,100,VALID,-0.0339617,VALID,16.931,VALID,130,VALID,0.288876,
2006-01-01, 02:54:00,VALID,918.128,VALID,0,VALID,100,VALID,-0.0679233,VALID,16.9243,VALID,130,VALID,0.184775,
2006-01-01, 02:55:00,VALID,918.13,VALID,0,VALID,100,VALID,-0.0169808,VALID,16.8918,VALID,130,VALID,0.0348558,
2006-01-01, 02:56:00,VALID,918.119,VALID,0,VALID,100,VALID,-0.0509425,VALID,16.8791,VALID,130,VALID,0.00234375,
2006-01-01, 02:57:00,VALID,918.103,VALID,0,VALID,100,VALID,-0.0339617,VALID,16.8858,VALID,130,VALID,0.158918,
2006-01-01, 02:58:00,VALID,918.11,VALID,0,VALID,100,VALID,-0.0169808,VALID,16.9019,VALID,130,VALID,0.0192454,
2006-01-01, 02:59:00,VALID,918.111,VALID,0,VALID,100,VALID,-0.0509425,VALID,16.9082,VALID,130,VALID,0.0139509,
2006-01-01, 03:00:00,VALID,918.093,VALID,0,VALID,100,VALID,-0.0339617,VALID,16.9015,VALID,130,VALID,0.261052,
2006-01-01, 03:01:00,VALID,918.094,VALID,0,VALID,100,VALID,-0.0679233,VALID,16.9076,VALID,130,VALID,0.195871,
2006-01-01, 03:02:00,VALID,918.083,VALID,0,VALID,100,VALID,-0.0339617,VALID,16.9147,VALID,130,VALID,0,
2006-01-01, 03:03:00,VALID,918.079,VALID,0,VALID,100,VALID,-0.0509425,VALID,16.8918,VALID,130,VALID,0,
2006-01-01, 03:04:00,VALID,918.073,VALID,0,VALID,100,VALID,-0.0339617,VALID,16.8597,VALID,130,VALID,0.0800781,
2006-01-01, 03:05:00,VALID,918.057,VALID,0,VALID,100,VALID,0.0509425,VALID,16.8582,VALID,130,VALID,0.228609,
2006-01-01, 03:06:00,VALID,918.055,VALID,0,VALID,100,VALID,0.0679233,VALID,16.8811,VALID,130,VALID,0.265803,
2006-01-01, 03:07:00,VALID,918.06,VALID,0,VALID,100,VALID,0.0509425,VALID,16.855,VALID,130,VALID,0.0065407,
2006-01-01, 03:08:00,VALID,918.049,VALID,0,VALID,100,VALID,0.0169808,VALID,16.8619,VALID,130,VALID,0,
2006-01-01, 03:09:00,VALID,918.021,VALID,0,VALID,100,VALID,0.0509425,VALID,16.8714,VALID,130,VALID,0,
2006-01-01, 03:10:00,VALID,918.019,VALID,0,VALID,100,VALID,0.0339617,VALID,16.9166,VALID,130,VALID,0,
2006-01-01, 03:11:00,VALID,917.995,VALID,0,VALID,100,VALID,0.0339617,VALID,16.9651,VALID,130,VALID,0,
2006-01-01, 03:12:00,VALID,917.982,VALID,0,VALID,99.9926,VALID,0.0849042,VALID,16.9814,VALID,130,VALID,0.0613567,
2006-01-01, 03:13:00,VALID,917.971,VALID,0,VALID,99.7536,VALID,0.0339617,VALID,16.9816,VALID,130,VALID,0.136541,
2006-01-01, 03:14:00,VALID,917.958,VALID,0,VALID,99.5768,VALID,0.0339617,VALID,16.9552,VALID,130,VALID,0.0015625,
2006-01-01, 03:15:00,VALID,917.951,VALID,0,VALID,99.5437,VALID,0.0169808,VALID,16.9358,VALID,130,VALID,0,
2006-01-01, 03:16:00,VALID,917.936,VALID,0,VALID,99.4547,VALID,0.0679233,VALID,16.914,VALID,130,VALID,0,
2006-01-01, 03:17:00,VALID,917.93,VALID,0,VALID,99.1546,VALID,0.0509425,VALID,16.8617,VALID,130,VALID,0,
2006-01-01, 03:18:00,VALID,917.915,VALID,0,VALID,99.1661,VALID,0.0169808,VALID,16.8617,VALID,130,VALID,0,
2006-01-01, 03:19:00,VALID,917.912,VALID,0,VALID,99.147,VALID,0,VALID,16.8709,VALID,130,VALID,0,
2006-01-01, 03:20:00,VALID,917.911,VALID,0,VALID,98.9944,VALID,0,VALID,16.878,VALID,130,VALID,0.0134943,
2006-01-01, 03:21:00,VALID,917.908,VALID,0,VALID,98.8711,VALID,0.0679233,VALID,16.8714,VALID,130,VALID,0.0524009,
2006-01-01, 03:22:00,VALID,917.898,VALID,0,VALID,98.3535,VALID,0.0339617,VALID,16.8068,VALID,130,VALID,0.0604539,
2006-01-01, 03:23:00,VALID,917.899,VALID,0,VALID,98.1259,VALID,0.0339617,VALID,16.7296,VALID,130,VALID,0,
2006-01-01, 03:24:00,VALID,917.888,VALID,0,VALID,98.3383,VALID,0.0169808,VALID,16.6741,VALID,130,VALID,0,
2006-01-01, 03:25:00,VALID,917.881,VALID,0,VALID,98.5023,VALID,0.0169808,VALID,16.6228,VALID,130,VALID,0.0137195,
2006-01-01, 03:26:00,VALID,917.876,VALID,0,VALID,98.6142,VALID,0.0509425,VALID,16.5875,VALID,130,VALID,0,
2006-01-01, 03:27:00,VALID,917.872,VALID,0,VALID,98.9436,VALID,0.0509425,VALID,16.5582,VALID,130,VALID,0,
2006-01-01, 03:28:00,VALID,917.865,VALID,0,VALID,99.5361,VALID,0.0509425,VALID,16.561,VALID,130,VALID,0,
2006-01-01, 03:29:00,VALID,917.842,VALID,0,VALID,99.868,VALID,0.0679233,VALID,16.5935,VALID,130,VALID,0.0719477,
2006-01-01, 03:30:00,VALID,917.837,VALID,0,VALID,100,VALID,0.0849042,VALID,16.6392,VALID,128,VALID,0.217297,
2006-01-01, 03:31:00,VALID,917.825,VALID,0,VALID,100,VALID,0,VALID,16.6909,VALID,92,VALID,0.6121,
2006-01-01, 03:32:00,VALID,917.816,VALID,0,VALID,99.8985,VALID,0.0509425,VALID,16.7165,VALID,74,VALID,0.86452,
2006-01-01, 03:33:00,VALID,917.81,VALID,0,VALID,99.6849,VALID,0.0509425,VALID,16.7555,VALID,69,VALID,0.876715,
2006-01-01, 03:34:00,VALID,917.821,VALID,0,VALID,99.4713,VALID,0.0679233,VALID,16.7912,VALID,68,VALID,0.844122,
2006-01-01, 03:35:00,VALID,917.803,VALID,0,VALID,99.0491,VALID,-0.0679233,VALID,16.8082,VALID,68,VALID,0.729759,
2006-01-01, 03:36:00,VALID,917.797,VALID,0,VALID,98.6485,VALID,-0.0509425,VALID,16.8246,VALID,67,VALID,0.739453,
2006-01-01, 03:37:00,VALID,917.787,VALID,0,VALID,98.5277,VALID,-0.0509425,VALID,16.8175,VALID,49,VALID,0.719122,
2006-01-01, 03:38:00,VALID,917.773,VALID,0,VALID,98.1958,VALID,0,VALID,16.8408,VALID,40,VALID,0.643111,
2006-01-01, 03:39:00,VALID,917.788,VALID,0,VALID,97.986,VALID,-0.0679233,VALID,16.8242,VALID,40,VALID,0.742188,
2006-01-01, 03:40:00,VALID,917.787,VALID,0,VALID,97.8411,VALID,-0.0339617,VALID,16.8274,VALID,40,VALID,0.681641,
2006-01-01, 03:41:00,VALID,917.784,VALID,0,VALID,97.7215,VALID,-0.0169808,VALID,16.8306,VALID,40,VALID,0.720203,